Hot Springs, VA

5:28 PM EST on February 19, 2018 (GMT -0500)
Ingalls

Weather History for KHSP - February, 2015

Change the Weather History Date:

Saturday, February 28, 2015

  Actual Average Record
Temperature  
Mean Temperature 17 °F -  
Max Temperature 26 °F 38 °F 62 °F (2011)
Min Temperature 8 °F 24 °F 5 °F (2002)
Degree Days  
Heating Degree Days 48    
Moisture  
Dew Point 5 °F    
Average Humidity 60    
Maximum Humidity 73    
Minimum Humidity 41    
Precipitation  
Precipitation 0.00 in - - ()
Sea Level Pressure  
Sea Level Pressure 30.45 in    
Wind  
Wind Speed 6 mph (South)    
Max Wind Speed 9 mph    
Max Gust Speed -    
Visibility 10 miles    
Events      
Averages and records for this station are not official NWS values.
T = Trace of Precipitation, MM = Missing Value Source: NWS Daily Summary

Daily Weather History Graph

Daily Weather History Graph

Search for Another Location

Airport or City:

Trip Planner

Search our weather history database for the weather conditions in past years. The results will help you decide how hot, cold, wet, or windy it might be!

Date:

Astronomy

Feb. 28, 2015 Rise Set
Actual Time 6:52 AM EST 6:11 PM EST
Civil Twilight 6:26 AM EST 6:38 PM EST
Nautical Twilight 5:55 AM EST 7:08 PM EST
Astronomical Twilight 5:25 AM EST 7:38 PM EST
Moon 1:55 PM EST (2/28) 3:28 AM EST (2/28)
Length of Visible Light 12h 11m
Length of Day
11h 18m
Waxing Gibbous, 78% of the Moon is Illuminated
Feb 28
Waxing Gibbous
Mar 5
Full
Mar 13
Last Quarter
Mar 20
New
Mar 27
First Quarter

Hourly Weather History & Observations

Time (EST) Temp. Windchill Dew Point Humidity Pressure Visibility Wind Dir Wind Speed Gust Speed Precip Events Conditions
12:15 AM 9.0 °F -3.2 °F 1.8 °F 73% 30.37 in 10.0 mi NW 8.1 mph - N/A   Clear
12:35 AM 8.8 °F -2.4 °F 1.8 °F 73% 30.36 in 10.0 mi NW 6.9 mph - N/A   Clear
12:55 AM 9.0 °F -3.2 °F 1.8 °F 73% 30.36 in 10.0 mi NW 8.1 mph - N/A   Clear
1:15 AM 9.0 °F -4.2 °F 1.4 °F 71% 30.37 in 10.0 mi NW 9.2 mph - N/A   Clear
1:35 AM 8.6 °F -1.3 °F 1.2 °F 72% 30.37 in 10.0 mi West 5.8 mph - N/A   Clear
1:55 AM 8.1 °F -3.2 °F -0.6 °F 68% 30.38 in 10.0 mi West 6.9 mph - N/A   Clear
2:15 AM 9.1 °F -1.9 °F -2.0 °F 61% 30.38 in 10.0 mi West 6.9 mph - N/A   Clear
2:35 AM 10.4 °F 0.8 °F -5.6 °F 49% 30.38 in 10.0 mi WSW 5.8 mph - N/A   Clear
2:55 AM 10.2 °F 3.8 °F -6.0 °F 48% 30.39 in 10.0 mi South 3.5 mph - N/A   Scattered Clouds
3:15 AM 8.8 °F 0.4 °F -0.6 °F 66% 30.39 in 10.0 mi SSE 4.6 mph - N/A   Scattered Clouds
3:35 AM 9.1 °F 0.8 °F 0.1 °F 67% 30.39 in 10.0 mi South 4.6 mph - N/A   Clear
3:55 AM 10.2 °F 3.8 °F -0.0 °F 63% 30.39 in 10.0 mi SSW 3.5 mph - N/A   Mostly Cloudy
4:15 AM 12.0 °F 2.7 °F -8.0 °F 41% 30.40 in 10.0 mi South 5.8 mph - N/A   Overcast
4:35 AM 12.2 °F 2.9 °F -4.9 °F 46% 30.40 in 10.0 mi South 5.8 mph - N/A   Overcast
4:55 AM 12.0 °F 1.5 °F -3.6 °F 50% 30.41 in 10.0 mi South 6.9 mph - N/A   Overcast
5:15 AM 12.2 °F 0.7 °F -5.3 °F 46% 30.41 in 10.0 mi South 8.1 mph - N/A   Overcast
5:35 AM 12.4 °F 0.9 °F -1.7 °F 54% 30.41 in 10.0 mi South 8.1 mph - N/A   Mostly Cloudy
5:55 AM 12.2 °F 0.7 °F 1.0 °F 61% 30.42 in 10.0 mi South 8.1 mph - N/A   Scattered Clouds
6:15 AM 12.0 °F 0.5 °F 0.5 °F 60% 30.43 in 10.0 mi South 8.1 mph - N/A   Clear
6:35 AM 11.5 °F 0.9 °F -0.4 °F 59% 30.43 in 10.0 mi South 6.9 mph - N/A   Clear
6:55 AM 11.1 °F 0.4 °F -0.6 °F 59% 30.44 in 10.0 mi South 6.9 mph - N/A   Clear
7:15 AM 11.3 °F 1.9 °F -0.0 °F 60% 30.44 in 10.0 mi SSE 5.8 mph - N/A   Clear
7:35 AM 11.3 °F 1.9 °F 0.1 °F 61% 30.45 in 10.0 mi SSE 5.8 mph - N/A   Clear
7:55 AM 12.7 °F 1.4 °F 0.9 °F 59% 30.47 in 10.0 mi South 8.1 mph - N/A   Scattered Clouds
8:15 AM 13.6 °F 3.5 °F 1.4 °F 58% 30.48 in 10.0 mi SSE 6.9 mph - N/A   Scattered Clouds
8:35 AM 12.7 °F 2.4 °F 1.6 °F 61% 30.49 in 10.0 mi SSE 6.9 mph - N/A   Mostly Cloudy
8:55 AM 12.6 °F 3.4 °F 1.9 °F 63% 30.51 in 10.0 mi SE 5.8 mph - N/A   Overcast
9:15 AM 13.1 °F 1.8 °F 2.3 °F 62% 30.50 in 10.0 mi SE 8.1 mph - N/A   Scattered Clouds
9:35 AM 14.0 °F 5.1 °F 3.0 °F 62% 30.51 in 10.0 mi SSE 5.8 mph - N/A   Clear
9:55 AM 14.5 °F 5.7 °F 3.7 °F 62% 30.51 in 10.0 mi SE 5.8 mph - N/A   Clear
10:15 AM 14.9 °F 5.0 °F 3.9 °F 62% 30.51 in 10.0 mi SSE 6.9 mph - N/A   Clear
10:35 AM 15.8 °F 7.2 °F 4.5 °F 61% 30.51 in 10.0 mi SE 5.8 mph - N/A   Clear
10:55 AM 16.5 °F 11.0 °F 4.8 °F 60% 30.51 in 10.0 mi SE 3.5 mph - N/A   Clear
11:15 AM 17.8 °F 10.9 °F 5.7 °F 59% 30.51 in 10.0 mi SSE 4.6 mph - N/A   Clear
11:35 AM 18.3 °F 10.2 °F 6.1 °F 59% 30.50 in 10.0 mi SSW 5.8 mph - N/A   Clear
11:55 AM 18.5 °F 9.3 °F 6.1 °F 58% 30.51 in 10.0 mi SSE 6.9 mph - N/A   Clear
12:15 PM 19.4 °F 12.8 °F 6.6 °F 58% 30.50 in 10.0 mi South 4.6 mph - N/A   Clear
12:35 PM 20.3 °F 12.5 °F 7.3 °F 57% 30.52 in 10.0 mi SSE 5.8 mph - N/A   Clear
12:55 PM 21.4 °F 13.8 °F 7.7 °F 56% 30.49 in 10.0 mi SSE 5.8 mph - N/A   Clear
1:15 PM 21.6 °F 15.3 °F 8.4 °F 57% 30.48 in 10.0 mi SE 4.6 mph - N/A   Clear
1:35 PM 21.2 °F 14.9 °F 8.1 °F 57% 30.48 in 10.0 mi South 4.6 mph - N/A   Clear
1:55 PM 21.4 °F 16.6 °F 8.4 °F 57% 30.47 in 10.0 mi SSE 3.5 mph - N/A   Clear
2:15 PM 22.8 °F 18.2 °F 9.3 °F 56% 30.46 in 10.0 mi South 3.5 mph - N/A   Clear
2:35 PM 24.4 °F - 10.4 °F 55% 30.46 in 10.0 mi Calm Calm - N/A   Clear
2:55 PM 25.0 °F 19.3 °F 9.5 °F 52% 30.46 in 10.0 mi SE 4.6 mph - N/A   Clear
3:15 PM 24.4 °F 17.5 °F 9.5 °F 53% 30.46 in 10.0 mi South 5.8 mph - N/A   Clear
3:35 PM 25.2 °F 18.3 °F 10.0 °F 53% 30.46 in 10.0 mi South 5.8 mph - N/A   Clear
3:55 PM 24.6 °F 18.8 °F 9.7 °F 53% 30.46 in 10.0 mi South 4.6 mph - N/A   Clear
4:15 PM 24.6 °F 20.3 °F 9.5 °F 53% 30.47 in 10.0 mi South 3.5 mph - N/A   Scattered Clouds
4:35 PM 25.9 °F 20.3 °F 10.8 °F 53% 30.46 in 10.0 mi West 4.6 mph - N/A   Scattered Clouds
4:55 PM 26.6 °F 21.2 °F 12.0 °F 54% 30.46 in 10.0 mi WSW 4.6 mph - N/A   Clear
5:15 PM 24.3 °F - 10.4 °F 56% 30.46 in 10.0 mi Calm Calm - N/A   Clear
5:35 PM 22.6 °F 18.0 °F 9.9 °F 58% 30.46 in 10.0 mi SSE 3.5 mph - N/A   Clear
5:55 PM 21.7 °F 17.0 °F 9.9 °F 60% 30.47 in 10.0 mi South 3.5 mph - N/A   Clear
6:15 PM 20.8 °F 13.2 °F 9.5 °F 62% 30.46 in 10.0 mi South 5.8 mph - N/A   Clear
6:35 PM 20.3 °F 12.5 °F 9.5 °F 63% 30.46 in 10.0 mi South 5.8 mph - N/A   Clear
6:55 PM 20.3 °F 12.5 °F 9.5 °F 63% 30.46 in 10.0 mi South 5.8 mph - N/A   Clear
7:15 PM 20.5 °F 11.7 °F 9.5 °F 63% 30.46 in 10.0 mi South 6.9 mph - N/A   Clear
7:35 PM 20.3 °F 11.5 °F 9.5 °F 63% 30.47 in 10.0 mi South 6.9 mph - N/A   Clear
7:55 PM 20.1 °F 13.6 °F 9.5 °F 63% 30.48 in 10.0 mi SSW 4.6 mph - N/A   Clear
8:15 PM 21.6 °F 15.3 °F 9.7 °F 60% 30.48 in 10.0 mi South 4.6 mph - N/A   Mostly Cloudy
8:35 PM 21.9 °F 14.5 °F 10.2 °F 61% 30.47 in 10.0 mi SE 5.8 mph - N/A   Mostly Cloudy
8:55 PM 20.8 °F - 10.4 °F 64% 30.47 in 10.0 mi Calm Calm - N/A   Overcast
9:15 PM 20.7 °F 11.9 °F 10.6 °F 65% 30.48 in 10.0 mi South 6.9 mph - N/A   Overcast
9:55 PM 20.3 °F 12.5 °F 11.1 °F 68% 30.47 in 10.0 mi SSE 5.8 mph - N/A   Overcast
10:15 PM 20.1 °F 12.3 °F 10.9 °F 68% 30.46 in 10.0 mi SE 5.8 mph - N/A   Overcast
10:35 PM 19.4 °F 12.8 °F 10.4 °F 68% 30.46 in 10.0 mi SSE 4.6 mph - N/A   Mostly Cloudy
10:55 PM 19.2 °F 10.2 °F 10.2 °F 68% 30.45 in 10.0 mi SSE 6.9 mph - N/A   Mostly Cloudy
11:15 PM 18.5 °F 9.3 °F 10.4 °F 71% 30.45 in 10.0 mi SSE 6.9 mph - N/A   Scattered Clouds
11:35 PM 18.7 °F 9.5 °F 10.4 °F 70% 30.44 in 10.0 mi South 6.9 mph - N/A   Clear
11:55 PM 18.5 °F 7.5 °F 10.4 °F 71% 30.44 in 10.0 mi South 9.2 mph - N/A   Scattered Clouds